Lafayette, LA

12:03 PM CDT on April 28, 2017 (GMT -0500)
Lafayette Regional

Weather History for KLFT - November, 2013

Change the Weather History Date:

Friday, November 8, 2013

  Actual Average Record
Temperature  
Mean Temperature 54 °F 64 °F  
Max Temperature 65 °F 75 °F 88 °F (1927)
Min Temperature 42 °F 53 °F 29 °F (1991)
Degree Days  
Heating Degree Days 11 4  
Month to date heating degree days 32 27  
Since 1 July heating degree days 43 63  
Growing Degree Days 4 (Base 50)    
Moisture  
Dew Point 40 °F    
Average Humidity 60    
Maximum Humidity 89    
Minimum Humidity 31    
Precipitation  
Precipitation 0.00 in 0.15 in 1.37 in (2000)
Month to date precipitation T 1.26  
Year to date precipitation 52.28 51.83  
Snow  
Snow 0.00 in 0.00 in 0.00 in ()
Month to date snowfall 0.0 0.0  
Since 1 July snowfall 0.0 0.0  
Since 1 September snowfall 0.0 0.0  
Snow Depth 0.00 in    
Sea Level Pressure  
Sea Level Pressure 30.28 in    
Wind  
Wind Speed 5 mph (NE)    
Max Wind Speed 17 mph    
Max Gust Speed 25 mph    
Visibility 10 miles    
Events      
T = Trace of Precipitation, MM = Missing Value Source: NWS Daily Summary

Daily Weather History Graph

Daily Weather History Graph

Search for Another Location

Airport or City:

Trip Planner

Search our weather history database for the weather conditions in past years. The results will help you decide how hot, cold, wet, or windy it might be!

Date:

Astronomy

Nov. 08, 2013 Rise Set
Actual Time 6:27 AM CST 5:15 PM CST
Civil Twilight 6:02 AM CST 5:40 PM CST
Nautical Twilight 5:34 AM CST 6:08 PM CST
Astronomical Twilight 5:05 AM CST 6:37 PM CST
Moon 11:23 AM CST (11/8) 10:35 PM CST (11/8)
Length of Visible Light 11h 37m
Length of Day
10h 47m
Waxing Crescent, 33% of the Moon is Illuminated
Nov 8
Waxing Crescent
Nov 9
First Quarter
Nov 17
Full
Nov 25
Last Quarter
Dec 2
New

Hourly Weather History & Observations

Time (CST) Temp. Windchill Dew Point Humidity Pressure Visibility Wind Dir Wind Speed Gust Speed Precip Events Conditions
12:53 AM 48.0 °F - 39.0 °F 71% 30.32 in 10.0 mi NNE 8.1 mph - N/A   Clear
1:53 AM 46.9 °F - 39.9 °F 77% 30.32 in 10.0 mi North 5.8 mph - N/A   Clear
2:53 AM 46.0 °F 41.9 °F 39.9 °F 79% 30.32 in 10.0 mi North 8.1 mph - N/A   Clear
3:53 AM 45.0 °F 41.8 °F 39.0 °F 80% 30.31 in 10.0 mi NNE 5.8 mph - N/A   Clear
4:53 AM 44.1 °F 40.8 °F 39.0 °F 82% 30.32 in 10.0 mi NNE 5.8 mph - N/A   Clear
5:53 AM 43.0 °F 39.5 °F 39.0 °F 86% 30.33 in 10.0 mi North 5.8 mph - N/A   Clear
6:53 AM 43.0 °F 40.3 °F 39.0 °F 86% 30.34 in 10.0 mi NNE 4.6 mph - N/A   Clear
7:53 AM 48.9 °F - 39.0 °F 69% 30.36 in 10.0 mi NE 6.9 mph - N/A   Clear
8:53 AM 55.0 °F - 35.1 °F 47% 30.35 in 10.0 mi ENE 10.4 mph 19.6 mph N/A   Clear
9:53 AM 57.9 °F - 34.0 °F 41% 30.35 in 10.0 mi NE 10.4 mph 21.9 mph N/A   Clear
10:53 AM 60.1 °F - 34.0 °F 38% 30.34 in 10.0 mi NE 8.1 mph 21.9 mph N/A   Clear
11:53 AM 63.0 °F - 34.0 °F 34% 30.30 in 10.0 mi ENE 9.2 mph 19.6 mph N/A   Clear
12:53 PM 64.0 °F - 35.1 °F 34% 30.27 in 10.0 mi NE 8.1 mph - N/A   Clear
1:53 PM 64.0 °F - 34.0 °F 33% 30.24 in 10.0 mi ENE 5.8 mph 19.6 mph N/A   Clear
2:53 PM 64.0 °F - 36.0 °F 35% 30.23 in 10.0 mi NE 4.6 mph - N/A   Clear
3:53 PM 62.1 °F - 39.0 °F 43% 30.23 in 10.0 mi Calm Calm - N/A   Clear
4:53 PM 60.1 °F - 42.1 °F 51% 30.23 in 10.0 mi Calm Calm - N/A   Clear
5:53 PM 57.9 °F - 44.1 °F 60% 30.23 in 10.0 mi NNE 3.5 mph - N/A   Clear
6:53 PM 53.1 °F - 45.0 °F 74% 30.23 in 10.0 mi NE 3.5 mph - N/A   Clear
7:53 PM 51.1 °F - 46.0 °F 83% 30.23 in 10.0 mi Calm Calm - N/A   Clear
8:53 PM 50.0 °F - 44.1 °F 80% 30.23 in 10.0 mi Calm Calm - N/A   Clear
9:53 PM 50.0 °F - 46.0 °F 86% 30.23 in 10.0 mi Calm Calm - N/A   Clear
10:53 PM 48.0 °F - 44.1 °F 86% 30.22 in 10.0 mi Calm Calm - N/A   Clear
11:53 PM 48.0 °F - 45.0 °F 89% 30.22 in 10.0 mi Calm Calm - N/A   Clear